Overview Statistics Trail Chart Weather Telemetry Raw packets
 

This is the latest recevied weather packets stored in our database for station/object SV9TNF-55. If no packets are shown the sender has not sent any weather packets the latest 10 day(s).

<< 10 11 12 13 14 15 16 >>
Time Temp. Humidity Pressure Rain* Wind** Luminosity Snow
1788494282 19.44° C 55% 1012 hPa 0 mm 2.68 m/s, 292° - -
1788493682 19.44° C 55% 1011.8 hPa 0 mm 3.13 m/s, 292° - -
1788493082 19.44° C 54% 1012 hPa 0 mm 2.24 m/s, 270° - -
1788492482 19.44° C 54% 1012 hPa 0 mm 3.13 m/s, 292° - -
1788491883 19.44° C 54% 1012 hPa 0 mm 2.68 m/s, 270° - -
1788491281 19.44° C 54% 1012 hPa 0 mm 1.79 m/s, 292° - -
1788490682 19.44° C 51% 1012 hPa 0 mm 1.79 m/s, 292° - -
1788490082 20° C 50% 1012 hPa 0 mm 3.13 m/s, 292° - -
1788489498 20° C 49% 1012.1 hPa 0 mm 2.68 m/s, 292° - -
1788488882 23.89° C 47% 1014.5 hPa 0 mm 3.58 m/s, 292° - -
1788488282 20° C 47% 1012 hPa 0 mm 3.58 m/s, 292° - -
1788487681 20° C 47% 1012 hPa 0 mm 2.24 m/s, 270° - -
1788487082 20° C 47% 1011.9 hPa 0 mm 1.79 m/s, 315° - -
1788486482 20.56° C 47% 1011.9 hPa 0 mm 2.24 m/s, 292° - -
1788485882 20.56° C 48% 1011.9 hPa 0 mm 4.02 m/s, 292° - -
1788485281 20.56° C 48% 1011.8 hPa 0 mm 3.58 m/s, 292° - -
1788484680 20.56° C 49% 1012 hPa 0 mm 3.58 m/s, 292° - -
1788484081 20.56° C 50% 1012.1 hPa 0 mm 3.58 m/s, 292° - -
1788483480 20.56° C 48% 1012.1 hPa 0 mm 2.24 m/s, 292° - -
1788482880 20.56° C 47% 1012.1 hPa 0 mm 2.24 m/s, 292° - -
1788482280 20.56° C 45% 1012.1 hPa 0 mm 2.68 m/s, 292° - -
1788481680 20.56° C 44% 1012.2 hPa 0 mm 1.79 m/s, 292° - -
1788481080 20.56° C 42% 1012.2 hPa 0 mm 1.79 m/s, 292° - -
1788480480 20.56° C 42% 1012.4 hPa 0 mm 1.34 m/s, 292° - -
1788479879 20.56° C 41% 1012.4 hPa 0 mm 1.34 m/s, 337° - -

* Rain latest hour (hover to see other rain measurements)
** Current wind speed in m/s (hover to see current wind gust speed)